TimeMST,TemperatureF,Dew PointF,Humidity,Sea Level PressureIn,VisibilityMPH,Wind Direction,Wind SpeedMPH,Gust SpeedMPH,PrecipitationIn,Events,Conditions,WindDirDegrees,DateUTC
12:53 AM,36.0,30.9,82,30.30,10.0,ESE,3.5,-,N/A,,Clear,120,2012-12-20 07:53:00
1:53 AM,36.0,30.0,79,30.29,10.0,Calm,Calm,-,N/A,,Clear,0,2012-12-20 08:53:00
2:53 AM,33.1,30.0,89,30.30,10.0,Calm,Calm,-,N/A,,Clear,0,2012-12-20 09:53:00
3:53 AM,30.9,30.0,96,30.29,10.0,Calm,Calm,-,N/A,,Clear,0,2012-12-20 10:53:00
4:53 AM,35.1,28.9,78,30.27,10.0,ENE,3.5,-,N/A,,Clear,70,2012-12-20 11:53:00
5:53 AM,39.0,25.0,57,30.27,10.0,ESE,12.7,-,N/A,,Clear,110,2012-12-20 12:53:00
6:53 AM,33.1,28.0,82,30.30,10.0,SSE,6.9,-,N/A,,Clear,150,2012-12-20 13:53:00
7:53 AM,33.1,27.0,78,30.30,10.0,SSE,6.9,-,N/A,,Clear,160,2012-12-20 14:53:00
8:53 AM,37.0,28.9,73,30.30,10.0,Calm,Calm,-,N/A,,Clear,0,2012-12-20 15:53:00
9:53 AM,45.0,28.9,53,30.30,10.0,SSE,9.2,-,N/A,,Clear,150,2012-12-20 16:53:00
10:53 AM,54.0,17.1,23,30.26,10.0,ESE,17.3,-,N/A,,Clear,120,2012-12-20 17:53:00
11:53 AM,57.0,16.0,20,30.23,10.0,ESE,24.2,29.9,N/A,,Clear,120,2012-12-20 18:53:00
12:53 PM,60.1,12.9,16,30.18,10.0,ESE,20.7,31.1,N/A,,Clear,110,2012-12-20 19:53:00
1:53 PM,61.0,14.0,16,30.16,10.0,East,20.7,27.6,N/A,,Clear,100,2012-12-20 20:53:00
2:53 PM,63.0,12.9,14,30.14,10.0,ESE,24.2,33.4,N/A,,Clear,120,2012-12-20 21:53:00
3:53 PM,62.1,12.9,15,30.14,10.0,ESE,18.4,25.3,N/A,,Clear,110,2012-12-20 22:53:00
4:53 PM,61.0,12.9,15,30.13,10.0,ESE,17.3,-,N/A,,Clear,120,2012-12-20 23:53:00
5:53 PM,57.0,15.1,19,30.13,10.0,ESE,11.5,20.7,N/A,,Clear,110,2012-12-21 00:53:00
6:53 PM,54.0,17.1,23,30.13,10.0,East,10.4,-,N/A,,Clear,100,2012-12-21 01:53:00
7:53 PM,53.1,17.1,24,30.14,10.0,ESE,8.1,-,N/A,,Clear,120,2012-12-21 02:53:00
8:53 PM,51.1,15.1,24,30.14,10.0,SE,16.1,21.9,N/A,,Clear,130,2012-12-21 03:53:00
9:53 PM,51.1,12.9,22,30.13,10.0,SE,19.6,-,N/A,,Clear,130,2012-12-21 04:53:00
10:53 PM,50.0,12.0,22,30.12,10.0,ESE,18.4,-,N/A,,Clear,120,2012-12-21 05:53:00
11:53 PM,50.0,10.9,21,30.12,10.0,ESE,21.9,-,N/A,,Clear,120,2012-12-21 06:53:00